Regional Weather Roundup
Issued by NWS

Home | Current Version | Previous Version | Text Only | Print | Product List | Glossary Off
Versions: 1 2 3 4 5 6 7 8 9 10 11 12 13 14 15 16 17 18 19 20 21 22 23 24 25 26 27 28 29 30 31 32 33 34 35 36 37 38 39 40 41 42 43 44 45 46 47 48 49 50

000
ASUS43 KIND 271959
RWRIN

WEATHER ROUNDUP FOR INDIANA
NATIONAL WEATHER SERVICE INDIANAPOLIS IN
400 PM EDT FRI MAY 27 2016

NOTE: "FAIR" INDICATES FEW OR NO CLOUDS BELOW 12,000 FEET WITH NO
SIGNIFICANT WEATHER AND/OR OBSTRUCTIONS TO VISIBILITY.

* - STATION DOES NOT REPORT WEATHER SUCH AS PRECIPITATION OR FOG.

+ - STATION NOT QUALITY CONTROLLED BY THE NATIONAL WEATHER SERVICE.
    USE DATA WITH CAUTION...ESPECIALLY DEWPOINT AND RELATIVE
    HUMIDITY OBSERVATIONS.

INZ001>003-010>013-019-020-272100-
NORTHWEST INDIANA

CITY           SKY/WX    TMP DP  RH WIND       PRES   REMARKS
GARY /AIRPORT/ PTSUNNY   84  70  61 S9G21     29.86F
RENSSELAER +   CLOUDY    82  61  47 S25G31    29.88F

$$

LMZ046-743>745-272100-
SOUTHERN LAKE MICHIGAN

STATION/POSITION TIME  TEMP    WIND        PRES    WAVE
                       AIR SEA DIR/SP/G            HT
                 (UTC) (F)     (DEG/KT/KT) (MB)    (FT)
BURNS HARBOR     1900   81     190/  8/ 14 1012.2F
MICHIGAN CITY    1900   80     160/ 15/ 18   N/A
5NW MICH CITY    1900   72 60  180/  6/ 10   N/A     1

$$

INZ004-005-014>016-021>024-272100-
NORTH CENTRAL INDIANA

CITY           SKY/WX    TMP DP  RH WIND       PRES   REMARKS
ELKHART        PTSUNNY   84  68  58 S8        29.93F
GOSHEN         MOSUNNY   85  60  42 S16       29.93F
SOUTH BEND     CLOUDY    83  63  50 S13G21    29.91F

$$

INZ006>009-017-018-025>027-272100-
NORTHEAST INDIANA

CITY           SKY/WX    TMP DP  RH WIND       PRES   REMARKS
ANGOLA *+        N/A     81  75  83 SW7       29.96F
FORT WAYNE     CLOUDY    85  58  39 S16G22    29.95F

$$

INZ028-029-035-036-043>045-051>053-272100-
WEST CENTRAL INDIANA

CITY           SKY/WX    TMP DP  RH WIND       PRES   REMARKS
CRAWFORDSVL +  PTSUNNY   81  64  57 S17G26    29.92F
GREENCASTLE +  PTSUNNY   81  70  69 S12G22    29.94F
LAFAYETTE      CLOUDY    81  63  54 S14G24    29.90F
TERRE HAUTE    CLOUDY    83  64  52 S18G26    29.92S

$$

INZ030>032-037>040-046>048-054>057-064-065-272100-
CENTRAL INDIANA

CITY           SKY/WX    TMP DP  RH WIND       PRES   REMARKS
ANDERSON       PTSUNNY   82  64  54 S12       29.98
COLUMBUS       MOSUNNY   84  63  48 S14G21    29.96F
INDIANAPOLIS   CLOUDY    84  65  52 S12       29.93F
-EAGLE CREEK   CLOUDY    84  62  47 S10G18    29.94F
KOKOMO *+      CLOUDY    81  61  50 S18G24    29.94S
SHELBYVILLE    MOSUNNY   87  60  40 S16       29.95F

$$

INZ033-034-041-042-049-050-058-059-272100-
EAST CENTRAL INDIANA

CITY           SKY/WX    TMP DP  RH WIND       PRES   REMARKS
MUNCIE         CLOUDY    87  60  40 S13G21    29.96F

$$

INZ060-061-067>069-081>083-085>088-272100-
SOUTHWEST INDIANA

CITY           SKY/WX    TMP DP  RH WIND       PRES   REMARKS
EVANSVILLE     MOSUNNY   83  65  54 S13       29.93F
HUNTINGBURG *+ PTSUNNY   84  64  51 S15G22    29.95F

$$

INZ062-063-066-070>080-084-089>092-272100-
SOUTH CENTRAL AND SOUTHEAST INDIANA

CITY           SKY/WX    TMP DP  RH WIND       PRES   REMARKS
BLOOMINGTON    MOSUNNY   85  61  44 S15G23    29.94F
MADISON *+     MOSUNNY   82  61  47 SE8       30.01S
SEYMOUR +      MOSUNNY   86  61  42 SW12      29.96F

$$





USA.gov is the U.S. government's official web portal to all federal, state and local government web resources and services.